Location: Madaval?rg?dem
(16.6092°N, 80.7257°E)
Time: 12:23:53
(UTC+00:00)

ISS - Visible Passes

Search period start: 12 August 2022 00:00
Search period end: 22 August 2022 00:00
Orbit: 412 x 420 km, 51.6° (Epoch: 12 August)

Date Brightness Start Highest point End Pass type
(mag) Time Alt. Az. Time Alt. Az. Time Alt. Az.
16 Aug -1.8 23:35:17 10° S 23:38:11 27° SE 23:41:05 10° ENE visible
17 Aug -0.9 22:48:11 10° SSE 22:49:42 13° SE 22:51:14 10° E visible
18 Aug -3.6 23:35:14 17° SW 23:37:35 55° NW 23:40:52 10° NNE visible
19 Aug -3.2 22:49:15 56° ESE 22:49:15 56° ESE 22:52:18 10° NE visible
20 Aug -0.2 22:03:09 10° ENE 22:03:09 10° ENE 22:03:15 10° ENE visible
20 Aug -1.6 23:36:05 12° WNW 23:37:07 13° NW 23:38:51 10° NNW visible
21 Aug -1.7 22:49:52 20° N 22:49:52 20° N 22:51:19 10° N visible
